weather.gov     
National Weather Service

Regional Weather Roundup
NWS Homepage
This page is being discontinued on March 12, 2014.
The same data is available at this site. Please update your bookmarks.
Thank you, and we apologize for the inconvenience.
Please send an email to SR-SRH.Webmaster@noaa.gov with any concerns.


Current Version
Previous Version:    01  02  03  04  05  06  07  08  09  10  11  12  13  14  15  16  17  18  19  20  21  22  23  24  25  26  27  
[Printable]
160
ASUS44 KLCH 260210
RWRLCH
RWRLCH
REGIONAL WEATHER ROUNDUP
NATIONAL WEATHER SERVICE LAKE CHARLES LA
900 PM CDT SAT OCT 25 2014

Note: "fair" indicates few or no clouds below 12,000 feet with no
significant weather and/or obstructions to visibility.


ACROSS SOUTHEAST TEXAS

CITY           SKY/WX    TMP DP  RH WIND       PRES   REMARKS
BEAUMONT       CLEAR     61  56  83 SW3       30.10S
BEAUMONT CITY    N/A     63  58  83 CALM      30.11S
ORANGE         CLEAR     63  61  93 CALM      30.13R
JASPER         CLEAR     59  58  96 CALM      30.13R
$$

ACROSS CENTRAL LOUISIANA

CITY           SKY/WX    TMP DP  RH WIND       PRES   REMARKS
LEESVILLE      CLEAR     61  56  84 CALM      30.10S
FULLERTON        N/A     62  55  77 CALM      30.09R
ALEXANDRIA INT CLEAR     62  56  80 CALM      30.08S
ESLER FIELD    CLEAR     58  57  97 CALM      30.10S
DERIDDER         N/A     62  58  86 CALM      30.13R
OAKDALE        CLEAR     56  54  94 CALM      30.11S
OPELOUSAS        N/A     58  56  91 CALM      30.10S
$$

ACROSS SOUTHWEST AND SOUTH CENTRAL LOUISIANA

CITY           SKY/WX    TMP DP  RH WIND       PRES   REMARKS
SULPHUR        CLEAR     63  59  87 CALM      30.12R
LAKE CHARLES   CLEAR     63  58  83 CALM      30.11R
CHENNAULT INT  CLEAR     63  55  77 CALM      30.12
CAMERON PHI    CLOUDY    70  61  73 SW5       30.13S
DEQUINCY         N/A     60  58  93 CALM      30.11S
JENNINGS         N/A     64  53  68 CALM      30.11R
LAFAYETTE      CLEAR     62  60  93 CALM      30.10R
NEW IBERIA     CLEAR     63  56  78 CALM      30.11R
ABBEVILLE        N/A     63  57  81 CALM      30.11R
PATTERSON      CLEAR     61  57  88 CALM      30.13R
SALT POINT       N/A     68  63  84 CALM      30.10R
$$

SELECTED SITES ACROSS THE REGION

CITY           SKY/WX    TMP DP  RH WIND       PRES   REMARKS
HOUSTON BUSH   CLEAR     72  57  59 S6        30.10R
HOUSTON HOBBY  CLEAR     68  60  75 S5        30.11R
GALVESTON      CLEAR     69  60  73 SE6       30.12S
COLLEGE STAT   CLEAR     72  62  71 CALM      30.09R
CONROE         CLEAR     64  61  90 CALM      30.11R
HUNTSVILLE     CLEAR     72  61  68 S5        30.10R
LUFKIN         CLEAR     69  64  84 CALM      30.10R
SHREVEPORT     CLEAR     71  65  81 CALM      30.07S
MONROE         CLEAR     63  61  93 CALM      30.09S
NATCHEZ MS     CLEAR     63  57  82 S3        30.10S
BATON ROUGE    CLEAR     61  56  83 CALM      30.10R
N.O. INTL ARPT CLEAR     68  56  65 W3        30.09R
SLIDELL        CLEAR     62  58  86 CALM      30.08R
$$

MARINE REPORTS

STATION/POSITION TIME  TEMP    WIND        PRES    VSBY  WAVE
                       AIR SEA DIR/SP/G                  HT/PER
                 (UTC) (F)     (DEG/KT/KT) (MB)    (MI)  (FT/S)
BUOY 30 S HIGH I 0200   74 77  160/  4/  4 1019.5R         1/ 8
SEA RIM ST PARK  0200   72     200/  5/  6 1020.1S
PORT ARTHUR      0200      73  200/  3/  4 1019.5F
SABINE PASS N    0200   68 72  220/  3/  5 1019.7R
TEXAS POINT      0200   71 74  200/  7/  8 1019.7S
CALCASIEU PASS   0200   72 73  250/  6/  7   N/A
LK CHARLES BEACH 0200   71 75              1019.6R
MARSH ISLAND     NOT AVBL
FRESH WATER LOCK 0200   66 72  250/  5/  5 1019.2F
AMERADA PASS     0200   69 71   CALM  /  2 1019.3R
$$




U.S. Dept. of Commerce
NOAA National Weather Service
1325 East West Highway
Silver Spring, MD 20910
E-mail: w-nws.webmaster@noaa.gov
Page last modified: May 16, 2007
NATIONAL WEATHER SERVICE: for Safety, for Work, for Fun - FOR LIFE